Theta_e
355 355 355 353 353 354 355 353 354 353 354 355 355 356 356 357 359 357 357 359 360 360 361 362 362 362 362 361 361 358 357 357 356 355 355 355 352 350 351 345 342 341
355 356 357 355 354 355 355 356 355 354 353 355 356 355 358 359 359 358 357 359 360 360 361 362 361 361 362 361 362 359 356 356 354 359 355 355 353 351 351 346 343 342
356 356 356 355 354 354 354 356 357 356 355 355 357 358 358 361 360 358 357 358 359 360 360 361 361 361 362 361 362 360 358 356 354 357 355 354 354 351 351 350 343 343
356 356 356 356 356 355 354 353 355 357 357 356 356 360 360 360 360 358 357 361 358 359 359 360 360 360 361 361 361 360 358 358 357 356 355 355 355 353 351 350 346 345
355 356 357 357 357 357 355 353 352 355 358 359 358 359 360 359 359 358 357 357 357 358 358 359 359 360 360 360 361 359 358 358 358 356 355 354 355 354 353 351 347 345
356 356 357 356 356 356 355 353 352 353 356 358 359 360 360 360 359 359 358 357 357 357 358 359 358 360 360 360 361 359 358 358 358 357 355 354 354 355 355 352 348 346
355 355 356 357 356 355 355 354 353 353 354 356 360 359 359 359 359 358 358 357 358 357 357 358 358 358 360 360 360 359 358 358 358 357 355 355 354 354 354 352 349 348
355 356 356 356 356 355 354 354 353 353 353 354 355 360 360 358 357 359 359 357 357 357 357 359 359 359 360 360 359 358 357 358 358 357 355 355 354 353 353 353 350 347
356 356 355 355 355 355 354 354 354 353 354 354 354 357 360 359 357 357 359 358 356 357 357 358 360 360 360 360 359 358 357 357 357 357 356 355 355 354 353 352 350 349
356 356 355 355 354 355 354 354 355 354 354 354 354 355 358 360 358 356 357 359 357 356 356 357 359 360 360 360 359 359 358 356 356 356 356 356 355 355 354 352 350 349
356 356 355 355 354 354 354 355 355 355 355 354 355 355 356 358 359 357 355 358 359 357 356 356 358 360 360 359 359 360 359 358 357 356 357 357 356 356 357 354 352 350
356 356 355 355 354 354 354 355 355 355 355 355 355 355 356 358 358 358 356 354 358 359 358 357 357 359 360 359 359 359 359 359 358 356 356 357 357 356 356 355 354 351
356 356 356 355 355 354 354 354 354 354 355 356 356 356 356 357 358 358 358 356 356 359 360 359 358 358 359 359 358 358 359 358 358 357 356 356 357 357 357 356 356 354
356 356 356 356 355 354 353 353 353 353 354 356 357 355 355 356 358 358 358 358 356 356 359 360 360 359 359 359 359 358 358 358 358 357 357 356 356 357 357 357 357 356
356 356 356 356 356 355 354 354 354 354 354 355 356 356 356 356 357 358 358 358 358 357 357 359 360 360 360 359 358 357 358 358 358 357 357 356 356 356 357 357 357 357
356 356 355 355 356 355 355 354 354 355 354 354 355 356 356 356 356 357 358 357 358 358 357 358 359 361 351 339 343 357 357 358 358 358 357 356 356 355 356 356 357 357
356 355 355 354 355 356 355 354 354 354 354 353 355 357 357 356 356 355 356 357 357 358 358 358 358 358 340 334 335 339 354 357 357 357 358 357 356 355 354 355 356 357
357 356 356 355 354 354 355 355 354 353 353 353 354 356 358 358 357 355 356 357 357 357 358 359 359 343 335 333 333 333 339 357 357 357 357 357 357 356 355 355 355 356
358 357 356 356 355 354 355 355 354 353 352 353 353 355 358 357 357 356 355 356 357 356 356 358 359 342 334 331 331 331 332 343 358 357 357 357 357 357 356 356 355 355
359 358 357 357 357 355 355 355 354 353 353 354 354 354 355 357 357 356 356 355 356 357 357 357 358 343 332 329 328 329 331 336 356 357 356 357 357 357 357 357 356 355
359 358 357 357 357 356 355 354 355 354 353 353 354 354 353 355 356 356 356 356 355 356 357 358 358 339 330 327 325 325 329 332 353 357 356 356 356 357 357 357 357 357
360 359 358 358 358 357 356 355 355 355 354 354 354 354 355 354 355 357 356 356 356 355 355 356 359 335 328 326 324 324 326 341 351 354 355 355 355 355 356 358 358 357
360 359 359 358 359 358 357 356 355 356 356 356 354 354 354 354 354 355 356 357 356 356 355 354 356 340 326 323 322 322 326 346 350 353 354 355 355 355 356 356 358 358
361 360 359 359 359 358 358 358 358 358 358 359 356 354 353 354 355 355 356 356 356 357 357 356 355 344 322 320 320 320 329 348 351 353 354 355 355 356 356 356 357 348
362 362 361 360 359 360 360 360 359 359 359 360 359 358 356 355 355 355 355 356 357 357 348 354 357 347 322 318 317 318 328 349 353 353 354 355 355 355 356 357 357 352
363 362 362 361 361 361 362 362 362 361 361 361 361 360 358 357 356 355 355 355 356 356 357 357 357 358 346 315 315 315 319 346 353 353 353 354 356 355 355 356 356 356
Wind_Speed
13 11 11 11 11 10 10 11 10 10 8 8 9 9 10 9 9 10 9 9 9 9 8 9 8 7 7 6 6 7 7 8 7 7 7 7 6 7 6 5 5 6
15 13 11 10 9 9 8 11 11 11 11 8 8 7 7 9 10 11 9 9 9 9 8 8 8 8 7 7 6 7 7 7 8 6 8 7 7 7 7 6 6 5
15 14 14 13 12 12 12 10 11 11 10 10 7 7 7 8 10 10 10 9 10 10 9 8 8 8 8 7 7 7 7 8 8 8 8 8 7 8 7 6 6 6
16 16 15 15 13 13 12 10 8 9 9 9 10 9 9 8 8 10 10 10 9 10 10 10 10 9 9 9 8 7 7 7 8 7 8 7 7 8 8 6 6 7
17 16 14 14 13 12 11 11 11 10 10 11 10 9 9 10 10 10 10 10 10 10 10 11 10 10 10 9 9 8 8 7 7 7 8 8 8 8 8 7 6 8
15 15 15 15 14 13 12 13 12 12 11 10 12 11 10 10 11 11 11 11 10 11 11 11 11 10 10 10 9 9 9 8 8 8 8 9 8 8 7 7 7 7
16 16 16 14 15 14 14 13 12 12 12 11 9 11 11 10 11 12 12 12 11 11 12 11 11 11 10 10 10 9 9 9 8 9 10 8 8 9 9 8 8 7
17 15 16 14 15 15 15 14 13 12 12 11 11 11 12 13 11 10 11 12 12 12 12 12 12 12 11 10 11 10 10 8 9 10 11 10 8 10 10 9 8 9
15 15 15 15 15 14 15 14 13 13 12 12 13 11 11 12 13 11 10 12 12 11 12 12 12 12 12 11 12 12 12 11 10 11 12 12 11 11 11 10 9 9
15 15 16 16 16 14 15 15 14 13 12 13 13 12 12 11 12 13 10 11 12 12 12 12 12 13 13 12 13 13 13 13 12 12 12 13 13 12 12 11 12 11
17 16 17 17 17 15 16 16 15 14 13 14 13 12 13 11 11 12 12 11 12 13 13 14 13 13 14 14 13 13 14 13 13 12 12 13 13 13 13 13 13 13
18 17 18 19 18 17 17 16 15 14 14 13 14 14 13 13 13 12 12 14 13 13 14 14 14 13 14 15 14 13 13 13 13 13 13 13 13 13 13 13 13 14
18 18 18 18 18 17 15 15 15 15 15 15 14 15 14 13 13 14 12 14 14 14 14 14 14 14 13 14 14 14 14 14 14 14 14 13 13 14 13 13 14 13
19 18 18 17 16 16 15 16 15 15 15 14 14 15 15 14 14 14 13 13 14 14 14 13 14 14 14 13 14 14 14 14 15 14 14 14 13 14 14 14 15 14
16 16 15 15 16 16 16 16 15 15 15 14 13 14 13 15 14 14 14 14 13 14 14 13 13 14 13 13 14 15 14 15 15 15 15 14 14 14 14 15 14 14
16 15 15 15 15 16 16 16 15 15 15 14 14 15 14 14 14 13 14 15 14 14 14 13 13 11 15 21 18 15 15 13 13 15 15 15 14 14 14 15 16 15
15 15 14 16 16 15 15 16 16 14 14 14 14 14 14 14 14 15 14 14 15 15 15 14 13 13 19 19 21 22 16 14 14 14 15 15 14 15 14 15 15 15
15 15 15 16 15 16 15 16 15 14 14 14 14 14 13 13 15 15 15 14 14 15 16 15 14 17 20 20 21 22 19 15 13 12 12 13 14 14 14 13 14 14
15 16 16 15 16 16 15 14 15 14 14 14 15 14 13 14 16 16 15 15 15 16 17 16 15 19 20 21 21 22 22 19 13 13 13 13 14 14 14 14 13 13
17 17 16 16 15 14 14 14 14 15 15 14 13 13 13 14 15 16 15 15 15 16 16 15 16 18 21 22 21 22 23 20 15 15 14 14 14 14 13 14 14 13
16 17 17 16 15 14 14 14 14 13 14 13 12 14 15 15 15 16 15 16 16 15 14 15 15 19 20 22 21 22 23 20 16 14 13 13 14 13 14 14 14 14
16 16 16 15 15 14 15 15 14 14 14 12 11 12 12 12 12 13 14 14 14 14 14 15 14 18 19 20 22 21 22 15 14 15 15 14 13 13 13 12 13 14
15 16 15 15 15 15 15 15 14 14 12 10 12 12 12 12 13 13 12 13 14 14 15 15 13 14 17 19 20 21 17 13 13 13 14 15 15 13 12 12 12 13
14 15 15 15 14 15 15 13 13 11 12 11 12 12 12 12 11 11 11 11 13 14 14 14 13 11 15 17 20 21 19 14 12 13 15 15 14 12 11 11 13 17
13 14 14 15 15 14 13 13 12 12 10 10 11 11 11 9 9 10 10 10 12 12 14 15 12 10 14 16 19 20 18 12 12 12 14 14 11 12 12 12 12 13
12 13 13 13 13 12 11 11 10 9 10 10 10 10 10 10 10 9 11 11 10 11 11 11 11 10 10 16 17 18 20 13 11 12 14 12 11 12 12 12 12 12
Wind_Direction
191 192 193 193 193 191 188 187 187 189 189 186 184 187 189 188 185 190 188 187 189 187 186 192 193 191 194 193 182 182 180 181 182 182 184 182 190 197 208 209 194 177
192 192 194 195 195 193 190 188 187 189 193 190 191 178 178 179 188 188 187 186 187 190 187 186 193 194 192 193 187 178 182 178 183 181 185 183 193 194 206 209 205 193
191 192 195 195 195 195 192 187 186 189 189 194 185 181 180 178 184 190 190 183 187 190 190 187 189 193 192 192 188 182 180 183 184 185 184 192 189 192 208 204 209 203
193 194 195 198 197 196 194 187 183 184 186 188 193 188 187 186 181 188 190 186 185 189 192 191 192 193 193 192 189 190 188 184 187 178 185 189 189 192 203 206 208 207
193 194 196 198 199 197 194 194 191 187 187 190 191 188 185 187 189 190 190 193 188 189 190 193 193 193 193 194 191 195 193 192 187 179 181 190 192 190 201 204 209 209
197 196 195 196 196 194 195 197 196 193 192 187 192 191 189 187 191 193 193 194 192 190 191 193 194 194 192 194 193 198 196 195 194 188 184 192 195 195 198 206 207 207
200 198 199 198 198 197 198 199 198 196 197 197 188 194 192 190 191 195 195 194 191 192 192 192 194 195 193 194 195 198 198 198 196 195 196 196 193 199 201 202 210 209
202 200 201 199 198 197 198 198 199 198 198 196 195 197 193 198 194 194 195 194 193 191 192 192 192 195 194 193 198 198 200 199 199 197 202 201 193 199 201 203 201 209
201 201 200 202 201 201 201 200 199 200 197 196 199 198 196 197 200 196 192 194 196 192 192 192 193 194 195 195 198 198 199 201 200 199 201 202 199 202 200 199 199 204
203 202 201 202 203 202 203 202 199 200 198 199 200 199 197 199 197 199 193 193 196 196 195 195 193 195 196 197 198 198 200 201 201 202 204 204 203 203 199 197 202 203
203 202 201 202 204 203 204 202 201 199 198 200 199 200 199 197 197 196 198 195 197 198 198 199 198 196 197 200 200 199 200 202 203 203 204 206 208 206 202 200 201 204
202 201 202 202 203 203 203 202 201 200 197 199 199 200 200 198 197 196 197 201 201 201 201 201 201 199 200 201 201 199 200 203 204 206 206 206 208 209 207 205 204 205
201 202 202 202 201 202 201 201 202 201 198 198 198 201 199 199 199 198 200 201 204 203 203 202 203 203 202 202 202 200 200 202 204 207 209 209 210 210 210 209 209 207
203 201 201 201 200 198 199 201 201 202 201 198 196 200 201 201 200 199 201 202 205 206 206 204 204 205 205 203 203 202 201 203 204 206 209 211 211 211 211 212 211 210
203 202 201 200 198 197 199 200 200 200 201 199 197 199 202 204 203 200 201 204 206 207 209 208 207 207 206 204 204 206 204 204 205 207 209 211 212 212 212 213 213 214
201 201 199 198 198 198 199 199 199 199 199 200 199 199 200 201 203 202 203 204 205 208 209 210 212 211 209 205 204 204 206 207 206 209 210 211 212 213 214 214 215 214
198 200 198 199 200 199 198 199 201 199 199 199 198 197 198 198 201 204 205 204 205 207 209 211 213 214 207 204 205 206 206 209 209 211 211 213 213 213 214 214 216 216
196 197 199 201 198 200 198 199 200 200 199 199 199 197 197 196 201 205 206 205 206 209 211 212 214 212 205 203 204 205 207 210 213 214 213 216 216 216 217 216 216 217
191 194 198 199 200 201 199 198 199 200 200 199 201 199 195 198 202 203 206 206 206 209 213 213 217 210 205 202 202 203 207 210 215 215 215 217 218 218 219 217 217 218
189 192 195 198 198 199 199 200 199 201 202 202 201 197 199 202 204 205 207 208 209 210 213 216 217 210 203 202 201 202 205 207 218 217 219 221 220 220 220 220 218 219
189 191 194 194 194 194 197 200 201 203 204 203 200 200 202 204 204 206 209 210 211 212 213 218 220 209 200 200 200 200 204 204 218 221 225 226 226 224 223 222 221 221
189 192 193 192 191 192 195 198 199 201 203 202 204 207 210 210 212 212 213 214 215 215 217 222 222 207 199 197 198 199 200 205 216 223 227 230 230 229 228 227 226 224
189 190 191 191 190 191 196 197 197 199 200 196 205 210 209 211 213 214 215 215 216 217 221 226 225 207 196 194 195 195 193 208 213 223 229 233 234 230 232 231 229 226
188 188 189 190 190 194 195 195 195 196 198 193 201 205 213 214 214 218 219 220 218 221 221 227 229 208 191 193 192 191 192 202 210 218 228 232 236 235 235 235 233 229
186 188 189 189 192 194 191 190 191 192 192 190 200 204 212 212 213 218 221 223 224 224 223 226 231 218 191 187 191 191 193 205 206 216 227 230 230 237 235 237 238 233
184 186 188 189 190 188 188 189 184 185 189 192 197 201 204 210 213 216 219 222 222 225 225 222 226 225 199 183 184 190 193 201 211 214 226 226 227 233 236 235 237 240